User: anonymous   Login
Location: Zagreb
(45.8000°N, 16.0000°E)
Time: 11:50:37
(UTC+01:00)
Language:

A-11 Canister half - Orbit

View from above orbital plane
View from above orbital plane
View from above satellite
View from above satellite

Ground track
Ground track

The orbit data is extracted from the following two-line orbital elements,

1 00053U 60009E   22018.35611713 -.00000065  00000-0  19653-3 0  9992
2 00053  47.2756 270.6410 0100273 355.3967   4.5892 12.17268304739205
Epoch (UTC): 18 January 2022 08:32:48
Eccentricity: 0.0100273
inclination: 47.2756°
perigee height: 1524 km
apogee height: 1684 km
right ascension of ascending node: 270.6410°
argument of perigee: 355.3967°
revolutions per day: 12.17268304
mean anomaly at epoch: 4.5892°
orbit number at epoch: 73920

The dashed part of the orbit path shows where the satellite is in the earth's shadow,  

DLR